Year,Month,Day,Hour,Minute,Value (Times are PST for temperature in C)
2009,09,22,00,00,16.70
2009,09,22,00,01,16.80
2009,09,22,00,02,16.80
2009,09,22,00,03,16.80
2009,09,22,00,04,16.80
2009,09,22,00,05,16.80
2009,09,22,00,06,16.80
2009,09,22,00,07,16.80
2009,09,22,00,08,16.70
2009,09,22,00,09,16.70
2009,09,22,00,10,16.70
2009,09,22,00,11,16.70
2009,09,22,00,12,16.70
2009,09,22,00,13,16.70
2009,09,22,00,14,16.70
2009,09,22,00,15,16.70
2009,09,22,00,16,16.70
2009,09,22,00,17,16.70
2009,09,22,00,18,16.70
2009,09,22,00,19,16.70
2009,09,22,00,20,16.70
2009,09,22,00,21,16.60
2009,09,22,00,22,16.60
2009,09,22,00,23,16.60
2009,09,22,00,24,16.60
2009,09,22,00,25,16.60
2009,09,22,00,26,16.60
2009,09,22,00,27,16.60
2009,09,22,00,28,16.60
2009,09,22,00,29,16.50
2009,09,22,00,30,16.40
2009,09,22,00,31,16.40
2009,09,22,00,32,16.40
2009,09,22,00,33,16.40
2009,09,22,00,34,16.40
2009,09,22,00,35,16.40
2009,09,22,00,36,16.40
2009,09,22,00,37,16.40
2009,09,22,00,38,16.40
2009,09,22,00,39,16.40
2009,09,22,00,40,16.40
2009,09,22,00,41,16.40
2009,09,22,00,42,16.40
2009,09,22,00,43,16.40
2009,09,22,00,44,16.40
2009,09,22,00,45,16.40
2009,09,22,00,46,16.40
2009,09,22,00,47,16.40
2009,09,22,00,48,16.40
2009,09,22,00,49,16.50
2009,09,22,00,50,16.60
2009,09,22,00,51,16.60
2009,09,22,00,52,16.60
2009,09,22,00,53,16.70
2009,09,22,00,54,16.70
2009,09,22,00,55,16.70
2009,09,22,00,56,16.70
2009,09,22,00,57,16.70
2009,09,22,00,58,16.70
2009,09,22,00,59,16.70
2009,09,22,01,00,16.70
2009,09,22,01,01,16.70
2009,09,22,01,02,16.70
2009,09,22,01,03,16.60
2009,09,22,01,04,16.60
2009,09,22,01,05,16.60
2009,09,22,01,06,16.60
2009,09,22,01,07,16.60
2009,09,22,01,08,16.50
2009,09,22,01,09,16.40
2009,09,22,01,10,16.40
2009,09,22,01,11,16.40
2009,09,22,01,12,16.40
2009,09,22,01,13,16.40
2009,09,22,01,14,16.40
2009,09,22,01,15,16.30
2009,09,22,01,16,16.30
2009,09,22,01,17,16.20
2009,09,22,01,18,16.20
2009,09,22,01,19,16.20
2009,09,22,01,20,16.10
2009,09,22,01,21,16.10
2009,09,22,01,22,16.10
2009,09,22,01,23,16.00
2009,09,22,01,24,15.90
2009,09,22,01,25,15.90
2009,09,22,01,26,15.80
2009,09,22,01,27,15.80
2009,09,22,01,28,15.70
2009,09,22,01,29,15.70
2009,09,22,01,30,15.60
2009,09,22,01,31,15.60
2009,09,22,01,32,15.60
2009,09,22,01,33,15.50
2009,09,22,01,34,15.50
2009,09,22,01,35,15.40
2009,09,22,01,36,15.30
2009,09,22,01,37,15.30
2009,09,22,01,38,15.30
2009,09,22,01,39,15.30
2009,09,22,01,40,15.30
2009,09,22,01,41,15.30
2009,09,22,01,42,15.20
2009,09,22,01,43,15.20
2009,09,22,01,44,15.20
2009,09,22,01,45,15.20
2009,09,22,01,46,15.30
2009,09,22,01,47,15.20
2009,09,22,01,48,15.20
2009,09,22,01,49,15.20
2009,09,22,01,50,15.20
2009,09,22,01,51,15.20
2009,09,22,01,52,15.10
2009,09,22,01,53,15.10
2009,09,22,01,54,15.10
2009,09,22,01,55,15.10
2009,09,22,01,56,15.10
2009,09,22,01,57,15.10
2009,09,22,01,58,15.10
2009,09,22,01,59,15.10
2009,09,22,02,00,15.10
2009,09,22,02,01,15.10
2009,09,22,02,02,15.10
2009,09,22,02,03,15.10
2009,09,22,02,04,15.10
2009,09,22,02,05,15.10
2009,09,22,02,06,15.10
2009,09,22,02,07,15.10
2009,09,22,02,08,15.10
2009,09,22,02,09,15.10
2009,09,22,02,10,15.10
2009,09,22,02,11,15.10
2009,09,22,02,12,15.10
2009,09,22,02,13,15.10
2009,09,22,02,14,15.10
2009,09,22,02,15,15.10
2009,09,22,02,16,15.10
2009,09,22,02,17,15.10
2009,09,22,02,18,15.20
2009,09,22,02,19,15.30
2009,09,22,02,20,15.30
2009,09,22,02,21,15.40
2009,09,22,02,22,15.40
2009,09,22,02,23,15.50
2009,09,22,02,24,15.50
2009,09,22,02,25,15.60
2009,09,22,02,26,15.70
2009,09,22,02,27,15.80
2009,09,22,02,28,15.90
2009,09,22,02,29,15.90
2009,09,22,02,30,16.10
2009,09,22,02,31,16.10
2009,09,22,02,32,16.10
2009,09,22,02,33,16.10
2009,09,22,02,34,16.10
2009,09,22,02,35,16.20
2009,09,22,02,36,16.20
2009,09,22,02,37,16.20
2009,09,22,02,38,16.20
2009,09,22,02,39,16.10
2009,09,22,02,40,16.10
2009,09,22,02,41,16.20
2009,09,22,02,42,16.20
2009,09,22,02,43,16.30
2009,09,22,02,44,16.30
2009,09,22,02,45,16.30
2009,09,22,02,46,16.40
2009,09,22,02,47,16.40
2009,09,22,02,48,16.40
2009,09,22,02,49,16.40
2009,09,22,02,50,16.40
2009,09,22,02,51,16.40
2009,09,22,02,52,16.40
2009,09,22,02,53,16.50
2009,09,22,02,54,16.60
2009,09,22,02,55,16.60
2009,09,22,02,56,16.60
2009,09,22,02,57,16.60
2009,09,22,02,58,16.40
2009,09,22,02,59,16.40
2009,09,22,03,00,16.40
2009,09,22,03,01,16.40
2009,09,22,03,02,16.30
2009,09,22,03,03,16.20
2009,09,22,03,04,16.20
2009,09,22,03,05,16.10
2009,09,22,03,06,16.00
2009,09,22,03,07,15.90
2009,09,22,03,08,15.80
2009,09,22,03,09,15.80
2009,09,22,03,10,15.70
2009,09,22,03,11,15.60
2009,09,22,03,12,15.60
2009,09,22,03,13,15.50
2009,09,22,03,14,15.40
2009,09,22,03,15,15.30
2009,09,22,03,16,15.20
2009,09,22,03,17,15.20
2009,09,22,03,18,15.10
2009,09,22,03,19,15.00
2009,09,22,03,20,15.00
2009,09,22,03,21,15.00
2009,09,22,03,22,14.90
2009,09,22,03,23,14.90
2009,09,22,03,24,14.90
2009,09,22,03,25,14.80
2009,09,22,03,26,14.80
2009,09,22,03,27,14.80
2009,09,22,03,28,14.80
2009,09,22,03,29,14.80
2009,09,22,03,30,14.80
2009,09,22,03,31,14.80
2009,09,22,03,32,14.80
2009,09,22,03,33,14.80
2009,09,22,03,34,14.70
2009,09,22,03,35,14.70
2009,09,22,03,36,14.70
2009,09,22,03,37,14.70
2009,09,22,03,38,14.60
2009,09,22,03,39,14.60
2009,09,22,03,40,14.60
2009,09,22,03,41,14.60
2009,09,22,03,42,14.60
2009,09,22,03,43,14.50
2009,09,22,03,44,14.50
2009,09,22,03,45,14.50
2009,09,22,03,46,14.50
2009,09,22,03,47,14.50
2009,09,22,03,48,14.40
2009,09,22,03,49,14.40
2009,09,22,03,50,14.40
2009,09,22,03,51,14.40
2009,09,22,03,52,14.30
2009,09,22,03,53,14.30
2009,09,22,03,54,14.30
2009,09,22,03,55,14.20
2009,09,22,03,56,14.20
2009,09,22,03,57,14.20
2009,09,22,03,58,14.20
2009,09,22,03,59,14.20
2009,09,22,04,00,14.20
2009,09,22,04,01,14.20
2009,09,22,04,02,14.20
2009,09,22,04,03,14.20
2009,09,22,04,04,14.20
2009,09,22,04,05,14.10
2009,09,22,04,06,14.10
2009,09,22,04,07,14.10
2009,09,22,04,08,14.00
2009,09,22,04,09,14.00
2009,09,22,04,10,14.00
2009,09,22,04,11,13.90
2009,09,22,04,12,13.90
2009,09,22,04,13,13.90
2009,09,22,04,14,13.90
2009,09,22,04,15,13.80
2009,09,22,04,16,13.80
2009,09,22,04,17,13.80
2009,09,22,04,18,13.70
2009,09,22,04,19,13.70
2009,09,22,04,20,13.70
2009,09,22,04,21,13.70
2009,09,22,04,22,13.70
2009,09,22,04,23,13.70
2009,09,22,04,24,13.70
2009,09,22,04,25,13.70
2009,09,22,04,26,13.70
2009,09,22,04,27,13.70
2009,09,22,04,28,13.70
2009,09,22,04,29,13.80
2009,09,22,04,30,13.80
2009,09,22,04,31,13.90
2009,09,22,04,32,13.90
2009,09,22,04,33,13.90
2009,09,22,04,34,14.00
2009,09,22,04,35,14.00
2009,09,22,04,36,14.10
2009,09,22,04,37,14.10
2009,09,22,04,38,14.10
2009,09,22,04,39,14.00
2009,09,22,04,40,14.00
2009,09,22,04,41,14.00
2009,09,22,04,42,14.00
2009,09,22,04,43,14.00
2009,09,22,04,44,14.00
2009,09,22,04,45,14.00
2009,09,22,04,46,14.00
2009,09,22,04,47,14.00
2009,09,22,04,48,14.00
2009,09,22,04,49,14.00
2009,09,22,04,50,14.00
2009,09,22,04,51,14.00
2009,09,22,04,52,14.00
2009,09,22,04,53,14.10
2009,09,22,04,54,14.10
2009,09,22,04,55,14.10
2009,09,22,04,56,14.10
2009,09,22,04,57,14.10
2009,09,22,04,58,14.10
2009,09,22,04,59,14.10
2009,09,22,05,00,14.10
2009,09,22,05,01,14.00
2009,09,22,05,02,14.00
2009,09,22,05,03,14.00
2009,09,22,05,04,14.00
2009,09,22,05,05,13.90
2009,09,22,05,06,13.90
2009,09,22,05,07,13.90
2009,09,22,05,08,13.80
2009,09,22,05,09,13.80
2009,09,22,05,10,13.70
2009,09,22,05,11,13.70
2009,09,22,05,12,13.70
2009,09,22,05,13,13.70
2009,09,22,05,14,13.70
2009,09,22,05,15,13.70
2009,09,22,05,16,13.70
2009,09,22,05,17,13.70
2009,09,22,05,18,13.70
2009,09,22,05,19,13.70
2009,09,22,05,20,13.70
2009,09,22,05,21,13.70
2009,09,22,05,22,13.70
2009,09,22,05,23,13.70
2009,09,22,05,24,13.70
2009,09,22,05,25,13.70
2009,09,22,05,26,13.70
2009,09,22,05,27,13.80
2009,09,22,05,28,13.90
2009,09,22,05,29,13.90
2009,09,22,05,30,14.00
2009,09,22,05,31,14.00
2009,09,22,05,32,14.00
2009,09,22,05,33,14.00
2009,09,22,05,34,14.10
2009,09,22,05,35,14.10
2009,09,22,05,36,14.10
2009,09,22,05,37,14.10
2009,09,22,05,38,14.20
2009,09,22,05,39,14.20
2009,09,22,05,40,14.20
2009,09,22,05,41,14.20
2009,09,22,05,42,14.20
2009,09,22,05,43,14.20
2009,09,22,05,44,14.20
2009,09,22,05,45,14.20
2009,09,22,05,46,14.30
2009,09,22,05,47,14.30
2009,09,22,05,48,14.30
2009,09,22,05,49,14.30
2009,09,22,05,50,14.20
2009,09,22,05,51,14.20
2009,09,22,05,52,14.20
2009,09,22,05,53,14.20
2009,09,22,05,54,14.20
2009,09,22,05,55,14.20
2009,09,22,05,56,14.20
2009,09,22,05,57,14.20
2009,09,22,05,58,14.20
2009,09,22,05,59,14.20
2009,09,22,06,00,14.20
2009,09,22,06,01,14.20
2009,09,22,06,02,14.30
2009,09,22,06,03,14.30
2009,09,22,06,04,14.40
2009,09,22,06,05,14.40
2009,09,22,06,06,14.40
2009,09,22,06,07,14.40
2009,09,22,06,08,14.50
2009,09,22,06,09,14.50
2009,09,22,06,10,14.60
2009,09,22,06,11,14.60
2009,09,22,06,12,14.60
2009,09,22,06,13,14.70
2009,09,22,06,14,14.70
2009,09,22,06,15,14.70
2009,09,22,06,16,14.50
2009,09,22,06,17,14.40
2009,09,22,06,18,14.30
2009,09,22,06,19,14.20
2009,09,22,06,20,14.00
2009,09,22,06,21,13.90
2009,09,22,06,22,13.80
2009,09,22,06,23,13.80
2009,09,22,06,24,13.70
2009,09,22,06,25,13.70
2009,09,22,06,26,13.60
2009,09,22,06,27,13.60
2009,09,22,06,28,13.50
2009,09,22,06,29,13.50
2009,09,22,06,30,13.50
2009,09,22,06,31,13.40
2009,09,22,06,32,13.40
2009,09,22,06,33,13.40
2009,09,22,06,34,13.40
2009,09,22,06,35,13.40
2009,09,22,06,36,13.30
2009,09,22,06,37,13.30
2009,09,22,06,38,13.30
2009,09,22,06,39,13.30
2009,09,22,06,40,13.30
2009,09,22,06,41,13.30
2009,09,22,06,42,13.30
2009,09,22,06,43,13.30
2009,09,22,06,44,13.30
2009,09,22,06,45,13.40
2009,09,22,06,46,13.40
2009,09,22,06,47,13.40
2009,09,22,06,48,13.50
2009,09,22,06,49,13.50
2009,09,22,06,50,13.60
2009,09,22,06,51,13.60
2009,09,22,06,52,13.70
2009,09,22,06,53,13.70
2009,09,22,06,54,13.80
2009,09,22,06,55,13.80
2009,09,22,06,56,13.80
2009,09,22,06,57,13.90
2009,09,22,06,58,13.90
2009,09,22,06,59,14.00
2009,09,22,07,00,14.00
2009,09,22,07,01,14.10
2009,09,22,07,02,14.10
2009,09,22,07,03,14.20
2009,09,22,07,04,14.20
2009,09,22,07,05,14.20
2009,09,22,07,06,14.20
2009,09,22,07,07,14.30
2009,09,22,07,08,14.30
2009,09,22,07,09,14.30
2009,09,22,07,10,14.30
2009,09,22,07,11,14.30
2009,09,22,07,12,14.30
2009,09,22,07,13,14.30
2009,09,22,07,14,14.30
2009,09,22,07,15,14.30
2009,09,22,07,16,14.30
2009,09,22,07,17,14.30
2009,09,22,07,18,14.20
2009,09,22,07,19,14.20
2009,09,22,07,20,14.20
2009,09,22,07,21,14.20
2009,09,22,07,22,14.20
2009,09,22,07,23,14.20
2009,09,22,07,24,14.20
2009,09,22,07,25,14.10
2009,09,22,07,26,14.10
2009,09,22,07,27,14.10
2009,09,22,07,28,14.10
2009,09,22,07,29,14.10
2009,09,22,07,30,14.10
2009,09,22,07,31,14.10
2009,09,22,07,32,14.20
2009,09,22,07,33,14.20
2009,09,22,07,34,14.20
2009,09,22,07,35,14.20
2009,09,22,07,36,14.20
2009,09,22,07,37,14.20
2009,09,22,07,38,14.20
2009,09,22,07,39,14.20
2009,09,22,07,40,14.20
2009,09,22,07,41,14.20
2009,09,22,07,42,14.20
2009,09,22,07,43,14.20
2009,09,22,07,44,14.20
2009,09,22,07,45,14.20
2009,09,22,07,46,14.20
2009,09,22,07,47,14.20
2009,09,22,07,48,14.20
2009,09,22,07,49,14.30
2009,09,22,07,50,14.30
2009,09,22,07,51,14.40
2009,09,22,07,52,14.40
2009,09,22,07,53,14.50
2009,09,22,07,54,14.50
2009,09,22,07,55,14.50
2009,09,22,07,56,14.60
2009,09,22,07,57,14.60
2009,09,22,07,58,14.60
2009,09,22,07,59,14.70
2009,09,22,08,00,14.70
2009,09,22,08,01,14.70
2009,09,22,08,02,14.70
2009,09,22,08,03,14.70
2009,09,22,08,04,14.80
2009,09,22,08,05,14.80
2009,09,22,08,06,14.80
2009,09,22,08,07,14.80
2009,09,22,08,08,14.80
2009,09,22,08,09,14.80
2009,09,22,08,10,14.90
2009,09,22,08,11,14.90
2009,09,22,08,12,14.90
2009,09,22,08,13,14.90
2009,09,22,08,14,15.00
2009,09,22,08,15,15.10
2009,09,22,08,16,15.10
2009,09,22,08,17,15.20
2009,09,22,08,18,15.30
2009,09,22,08,19,15.30
2009,09,22,08,20,15.40
2009,09,22,08,21,15.50
2009,09,22,08,22,15.60
2009,09,22,08,23,15.70
2009,09,22,08,24,15.80
2009,09,22,08,25,15.90
2009,09,22,08,26,16.10
2009,09,22,08,27,16.10
2009,09,22,08,28,16.20
2009,09,22,08,29,16.30
2009,09,22,08,30,16.40
2009,09,22,08,31,16.40
2009,09,22,08,32,16.50
2009,09,22,08,33,16.70
2009,09,22,08,34,16.70
2009,09,22,08,35,16.80
2009,09,22,08,36,16.90
2009,09,22,08,37,17.00
2009,09,22,08,38,17.10
2009,09,22,08,39,17.20
2009,09,22,08,40,17.20
2009,09,22,08,41,17.30
2009,09,22,08,42,17.30
2009,09,22,08,43,17.40
2009,09,22,08,44,17.50
2009,09,22,08,45,17.50
2009,09,22,08,46,17.60
2009,09,22,08,47,17.70
2009,09,22,08,48,17.70
2009,09,22,08,49,17.80
2009,09,22,08,50,17.90
2009,09,22,08,51,17.90
2009,09,22,08,52,18.00
2009,09,22,08,53,18.10
2009,09,22,08,54,18.10
2009,09,22,08,55,18.20
2009,09,22,08,56,18.20
2009,09,22,08,57,18.30
2009,09,22,08,58,18.40
2009,09,22,08,59,18.50
2009,09,22,09,00,18.60
2009,09,22,09,01,18.70
2009,09,22,09,02,18.80
2009,09,22,09,03,18.90
2009,09,22,09,04,19.00
2009,09,22,09,05,19.10
2009,09,22,09,06,19.10
2009,09,22,09,07,19.30
2009,09,22,09,08,19.40
2009,09,22,09,09,19.40
2009,09,22,09,10,19.50
2009,09,22,09,11,19.60
2009,09,22,09,12,19.60
2009,09,22,09,13,19.70
2009,09,22,09,14,19.70
2009,09,22,09,15,19.70
2009,09,22,09,16,19.80
2009,09,22,09,17,19.80
2009,09,22,09,18,19.80
2009,09,22,09,19,19.90
2009,09,22,09,20,19.90
2009,09,22,09,21,19.90
2009,09,22,09,22,19.90
2009,09,22,09,23,19.90
2009,09,22,09,24,20.00
2009,09,22,09,25,20.10
2009,09,22,09,26,20.10
2009,09,22,09,27,20.10
2009,09,22,09,28,20.20
2009,09,22,09,29,20.20
2009,09,22,09,30,20.20
2009,09,22,09,31,20.30
2009,09,22,09,32,20.30
2009,09,22,09,33,20.30
2009,09,22,09,34,20.30
2009,09,22,09,35,20.30
2009,09,22,09,36,20.30
2009,09,22,09,37,20.40
2009,09,22,09,38,20.40
2009,09,22,09,39,20.40
2009,09,22,09,40,20.50
2009,09,22,09,41,20.50
2009,09,22,09,42,20.50
2009,09,22,09,43,20.50
2009,09,22,09,44,20.60
2009,09,22,09,45,20.60
2009,09,22,09,46,20.70
2009,09,22,09,47,20.70
2009,09,22,09,48,20.70
2009,09,22,09,49,20.70
2009,09,22,09,50,20.80
2009,09,22,09,51,20.80
2009,09,22,09,52,20.70
2009,09,22,09,53,20.70
2009,09,22,09,54,20.70
2009,09,22,09,55,20.70
2009,09,22,09,56,20.80
2009,09,22,09,57,20.80
2009,09,22,09,58,20.80
2009,09,22,09,59,20.80
2009,09,22,10,00,20.90
2009,09,22,10,01,20.90
2009,09,22,10,02,21.00
2009,09,22,10,03,21.00
2009,09,22,10,04,21.10
2009,09,22,10,05,21.10
2009,09,22,10,06,21.10
2009,09,22,10,07,21.20
2009,09,22,10,08,21.20
2009,09,22,10,09,21.30
2009,09,22,10,10,21.30
2009,09,22,10,11,21.30
2009,09,22,10,12,21.30
2009,09,22,10,13,21.30
2009,09,22,10,14,21.30
2009,09,22,10,15,21.30
2009,09,22,10,16,21.30
2009,09,22,10,17,21.20
2009,09,22,10,18,21.20
2009,09,22,10,19,21.20
2009,09,22,10,20,21.20
2009,09,22,10,21,21.20
2009,09,22,10,22,21.30
2009,09,22,10,23,21.30
2009,09,22,10,24,21.30
2009,09,22,10,25,21.30
2009,09,22,10,26,21.30
2009,09,22,10,27,21.30
2009,09,22,10,28,21.30
2009,09,22,10,29,21.30
2009,09,22,10,30,21.30
2009,09,22,10,31,21.30
2009,09,22,10,32,21.30
2009,09,22,10,33,21.30
2009,09,22,10,34,21.30
2009,09,22,10,35,21.30
2009,09,22,10,36,21.40
2009,09,22,10,37,21.40
2009,09,22,10,38,21.40
2009,09,22,10,39,21.40
2009,09,22,10,40,21.40
2009,09,22,10,41,21.50
2009,09,22,10,42,21.60
2009,09,22,10,43,21.60
2009,09,22,10,44,21.60
2009,09,22,10,45,21.60
2009,09,22,10,46,21.70
2009,09,22,10,47,21.70
2009,09,22,10,48,21.80
2009,09,22,10,49,21.90
2009,09,22,10,50,21.90
2009,09,22,10,51,22.00
2009,09,22,10,52,22.00
2009,09,22,10,53,22.10
2009,09,22,10,54,22.20
2009,09,22,10,55,22.20
2009,09,22,10,56,22.30
2009,09,22,10,57,22.20
2009,09,22,10,58,22.20
2009,09,22,10,59,22.30
2009,09,22,11,00,22.30
2009,09,22,11,01,22.30
2009,09,22,11,02,22.30
2009,09,22,11,03,22.20
2009,09,22,11,04,22.20
2009,09,22,11,05,22.20
2009,09,22,11,06,22.20
2009,09,22,11,07,22.10
2009,09,22,11,08,22.10
2009,09,22,11,09,22.10
2009,09,22,11,10,22.10
2009,09,22,11,11,22.10
2009,09,22,11,12,22.20
2009,09,22,11,13,22.30
2009,09,22,11,14,22.30
2009,09,22,11,15,22.30
2009,09,22,11,16,22.30
2009,09,22,11,17,22.30
2009,09,22,11,18,22.40
2009,09,22,11,19,22.40
2009,09,22,11,20,22.50
2009,09,22,11,21,22.50
2009,09,22,11,22,22.60
2009,09,22,11,23,22.60
2009,09,22,11,24,22.70
2009,09,22,11,25,22.70
2009,09,22,11,26,22.80
2009,09,22,11,27,22.80
2009,09,22,11,28,22.90
2009,09,22,11,29,22.90
2009,09,22,11,30,22.90
2009,09,22,11,31,22.90
2009,09,22,11,32,22.90
2009,09,22,11,33,22.90
2009,09,22,11,34,22.90
2009,09,22,11,35,22.90
2009,09,22,11,36,22.90
2009,09,22,11,37,22.90
2009,09,22,11,38,22.90
2009,09,22,11,39,22.90
2009,09,22,11,40,22.90
2009,09,22,11,41,22.90
2009,09,22,11,42,22.90
2009,09,22,11,43,22.90
2009,09,22,11,44,22.80
2009,09,22,11,45,22.80
2009,09,22,11,46,22.80
2009,09,22,11,47,22.80
2009,09,22,11,48,22.70
2009,09,22,11,49,22.70
2009,09,22,11,50,22.70
2009,09,22,11,51,22.60
2009,09,22,11,52,22.60
2009,09,22,11,53,22.60
2009,09,22,11,54,22.60
2009,09,22,11,55,22.50
2009,09,22,11,56,22.50
2009,09,22,11,57,22.60
2009,09,22,11,58,22.60
2009,09,22,11,59,22.60
2009,09,22,12,00,22.70
2009,09,22,12,01,22.70
2009,09,22,12,02,22.80
2009,09,22,12,03,22.80
2009,09,22,12,04,22.80
2009,09,22,12,05,22.80
2009,09,22,12,06,22.90
2009,09,22,12,07,22.90
2009,09,22,12,08,23.00
2009,09,22,12,09,23.10
2009,09,22,12,10,23.10
2009,09,22,12,11,23.20
2009,09,22,12,12,23.20
2009,09,22,12,13,23.30
2009,09,22,12,14,23.30
2009,09,22,12,15,23.40
2009,09,22,12,16,23.50
2009,09,22,12,17,23.60
2009,09,22,12,18,23.70
2009,09,22,12,19,23.70
2009,09,22,12,20,23.70
2009,09,22,12,21,23.70
2009,09,22,12,22,23.70
2009,09,22,12,23,23.70
2009,09,22,12,24,23.70
2009,09,22,12,25,23.70
2009,09,22,12,26,23.70
2009,09,22,12,27,23.70
2009,09,22,12,28,23.70
2009,09,22,12,29,23.70
2009,09,22,12,30,23.70
2009,09,22,12,31,23.80
2009,09,22,12,32,23.80
2009,09,22,12,33,23.90
2009,09,22,12,34,23.90
2009,09,22,12,35,24.00
2009,09,22,12,36,24.10
2009,09,22,12,37,24.10
2009,09,22,12,38,24.20
2009,09,22,12,39,24.20
2009,09,22,12,40,24.20
2009,09,22,12,41,24.20
2009,09,22,12,42,24.20
2009,09,22,12,43,24.40
2009,09,22,12,44,24.60
2009,09,22,12,45,24.70
2009,09,22,12,46,24.80
2009,09,22,12,47,24.90
2009,09,22,12,48,25.00
2009,09,22,12,49,25.10
2009,09,22,12,50,25.20
2009,09,22,12,51,25.20
2009,09,22,12,52,25.30
2009,09,22,12,53,25.20
2009,09,22,12,54,25.30
2009,09,22,12,55,25.30
2009,09,22,12,56,25.20
2009,09,22,12,57,25.20
2009,09,22,12,58,25.20
2009,09,22,12,59,25.20
2009,09,22,13,00,25.20
2009,09,22,13,01,25.20
2009,09,22,13,02,25.30
2009,09,22,13,03,25.30
2009,09,22,13,04,25.40
2009,09,22,13,05,25.50
2009,09,22,13,06,25.50
2009,09,22,13,07,25.60
2009,09,22,13,08,25.60
2009,09,22,13,09,25.60
2009,09,22,13,10,25.50
2009,09,22,13,11,25.30
2009,09,22,13,12,25.00
2009,09,22,13,13,24.70
2009,09,22,13,14,24.40
2009,09,22,13,15,24.20
2009,09,22,13,16,24.10
2009,09,22,13,17,23.90
2009,09,22,13,18,23.70
2009,09,22,13,19,23.50
2009,09,22,13,20,23.40
2009,09,22,13,21,23.30
2009,09,22,13,22,23.30
2009,09,22,13,23,23.20
2009,09,22,13,24,23.00
2009,09,22,13,25,22.90
2009,09,22,13,26,22.90
2009,09,22,13,27,22.90
2009,09,22,13,28,22.90
2009,09,22,13,29,23.10
2009,09,22,13,30,23.20
2009,09,22,13,31,23.30
2009,09,22,13,32,23.30
2009,09,22,13,33,23.30
2009,09,22,13,34,23.40
2009,09,22,13,35,23.60
2009,09,22,13,36,23.70
2009,09,22,13,37,23.70
2009,09,22,13,38,23.70
2009,09,22,13,39,23.70
2009,09,22,13,40,23.70
2009,09,22,13,41,23.70
2009,09,22,13,42,23.70
2009,09,22,13,43,23.70
2009,09,22,13,44,23.60
2009,09,22,13,45,23.50
2009,09,22,13,46,23.40
2009,09,22,13,47,23.40
2009,09,22,13,48,23.30
2009,09,22,13,49,23.30
2009,09,22,13,50,23.30
2009,09,22,13,51,23.40
2009,09,22,13,52,23.60
2009,09,22,13,53,23.40
2009,09,22,13,54,23.40
2009,09,22,13,55,23.60
2009,09,22,13,56,23.60
2009,09,22,13,57,23.60
2009,09,22,13,58,23.50
2009,09,22,13,59,23.40
2009,09,22,14,00,23.30
2009,09,22,14,01,23.40
2009,09,22,14,02,23.50
2009,09,22,14,03,23.60
2009,09,22,14,04,23.60
2009,09,22,14,05,23.70
2009,09,22,14,06,23.70
2009,09,22,14,07,23.80
2009,09,22,14,08,23.90
2009,09,22,14,09,24.10
2009,09,22,14,10,24.20
2009,09,22,14,11,24.20
2009,09,22,14,12,24.30
2009,09,22,14,13,24.30
2009,09,22,14,14,24.20
2009,09,22,14,15,24.20
2009,09,22,14,16,24.20
2009,09,22,14,17,24.30
2009,09,22,14,18,24.30
2009,09,22,14,19,24.30
2009,09,22,14,20,24.40
2009,09,22,14,21,24.50
2009,09,22,14,22,24.70
2009,09,22,14,23,24.80
2009,09,22,14,24,24.90
2009,09,22,14,25,24.90
2009,09,22,14,26,24.80
2009,09,22,14,27,24.80
2009,09,22,14,28,24.80
2009,09,22,14,29,24.90
2009,09,22,14,30,24.90
2009,09,22,14,31,25.00
2009,09,22,14,32,25.00
2009,09,22,14,33,24.90
2009,09,22,14,34,24.80
2009,09,22,14,35,24.70
2009,09,22,14,36,24.70
2009,09,22,14,37,24.70
2009,09,22,14,38,24.70
2009,09,22,14,39,24.60
2009,09,22,14,40,24.60
2009,09,22,14,41,24.50
2009,09,22,14,42,24.50
2009,09,22,14,43,24.50
2009,09,22,14,44,24.60
2009,09,22,14,45,24.60
2009,09,22,14,46,24.50
2009,09,22,14,47,24.50
2009,09,22,14,48,24.40
2009,09,22,14,49,24.30
2009,09,22,14,50,24.10
2009,09,22,14,51,24.00
2009,09,22,14,52,23.90
2009,09,22,14,53,23.80
2009,09,22,14,54,23.70
2009,09,22,14,55,23.70
2009,09,22,14,56,23.80
2009,09,22,14,57,23.80
2009,09,22,14,58,23.90
2009,09,22,14,59,23.90
2009,09,22,15,00,24.00
2009,09,22,15,01,24.10
2009,09,22,15,02,24.10
2009,09,22,15,03,24.10
2009,09,22,15,04,24.10
2009,09,22,15,05,24.10
2009,09,22,15,06,24.10
2009,09,22,15,07,24.20
2009,09,22,15,08,24.30
2009,09,22,15,09,24.30
2009,09,22,15,10,24.40
2009,09,22,15,11,24.50
2009,09,22,15,12,24.50
2009,09,22,15,13,24.60
2009,09,22,15,14,24.60
2009,09,22,15,15,24.60
2009,09,22,15,16,24.60
2009,09,22,15,17,24.50
2009,09,22,15,18,24.50
2009,09,22,15,19,24.40
2009,09,22,15,20,24.30
2009,09,22,15,21,24.30
2009,09,22,15,22,24.30
2009,09,22,15,23,24.20
2009,09,22,15,24,24.20
2009,09,22,15,25,24.30
2009,09,22,15,26,24.40
2009,09,22,15,27,24.50
2009,09,22,15,28,24.60
2009,09,22,15,29,24.80
2009,09,22,15,30,24.80
2009,09,22,15,31,24.80
2009,09,22,15,32,24.80
2009,09,22,15,33,24.90
2009,09,22,15,34,24.90
2009,09,22,15,35,25.00
2009,09,22,15,36,25.00
2009,09,22,15,37,25.10
2009,09,22,15,38,25.10
2009,09,22,15,39,25.10
2009,09,22,15,40,25.10
2009,09,22,15,41,25.10
2009,09,22,15,42,25.10
2009,09,22,15,43,25.20
2009,09,22,15,44,25.20
2009,09,22,15,45,25.30
2009,09,22,15,46,25.30
2009,09,22,15,47,25.30
2009,09,22,15,48,25.30
2009,09,22,15,49,25.20
2009,09,22,15,50,25.20
2009,09,22,15,51,25.20
2009,09,22,15,52,25.20
2009,09,22,15,53,25.30
2009,09,22,15,54,25.30
2009,09,22,15,55,25.40
2009,09,22,15,56,25.40
2009,09,22,15,57,25.50
2009,09,22,15,58,25.60
2009,09,22,15,59,25.60
2009,09,22,16,00,25.70
2009,09,22,16,01,25.80
2009,09,22,16,02,25.90
2009,09,22,16,03,26.00
2009,09,22,16,04,26.10
2009,09,22,16,05,26.20
2009,09,22,16,06,26.30
2009,09,22,16,07,26.20
2009,09,22,16,08,26.20
2009,09,22,16,09,26.20
2009,09,22,16,10,26.10
2009,09,22,16,11,26.20
2009,09,22,16,12,26.10
2009,09,22,16,13,26.00
2009,09,22,16,14,26.00
2009,09,22,16,15,26.00
2009,09,22,16,16,26.00
2009,09,22,16,17,26.00
2009,09,22,16,18,25.90
2009,09,22,16,19,25.80
2009,09,22,16,20,25.70
2009,09,22,16,21,25.60
2009,09,22,16,22,25.60
2009,09,22,16,23,25.50
2009,09,22,16,24,25.50
2009,09,22,16,25,25.50
2009,09,22,16,26,25.50
2009,09,22,16,27,25.60
2009,09,22,16,28,25.60
2009,09,22,16,29,25.70
2009,09,22,16,30,25.70
2009,09,22,16,31,25.80
2009,09,22,16,32,25.80
2009,09,22,16,33,25.80
2009,09,22,16,34,25.80
2009,09,22,16,35,25.80
2009,09,22,16,36,25.70
2009,09,22,16,37,25.60
2009,09,22,16,38,25.60
2009,09,22,16,39,25.60
2009,09,22,16,40,25.50
2009,09,22,16,41,25.40
2009,09,22,16,42,25.40
2009,09,22,16,43,25.30
2009,09,22,16,44,25.30
2009,09,22,16,45,25.30
2009,09,22,16,46,25.30
2009,09,22,16,47,25.20
2009,09,22,16,48,25.20
2009,09,22,16,49,25.30
2009,09,22,16,50,25.30
2009,09,22,16,51,25.30
2009,09,22,16,52,25.40
2009,09,22,16,53,25.40
2009,09,22,16,54,25.50
2009,09,22,16,55,25.50
2009,09,22,16,56,25.60
2009,09,22,16,57,25.60
2009,09,22,16,58,25.60
2009,09,22,16,59,25.60
2009,09,22,17,00,25.60
2009,09,22,17,01,25.60
2009,09,22,17,02,25.60
2009,09,22,17,03,25.70
2009,09,22,17,04,25.70
2009,09,22,17,05,25.70
2009,09,22,17,06,25.80
2009,09,22,17,07,25.80
2009,09,22,17,08,25.80
2009,09,22,17,09,25.80
2009,09,22,17,10,25.80
2009,09,22,17,11,25.90
2009,09,22,17,12,25.90
2009,09,22,17,13,25.90
2009,09,22,17,14,25.90
2009,09,22,17,15,25.80
2009,09,22,17,16,25.80
2009,09,22,17,17,25.80
2009,09,22,17,18,25.80
2009,09,22,17,19,25.70